Date,TemperatureHighF,TemperatureAvgF,TemperatureLowF,DewpointHighF,DewpointAvgF,DewpointLowF,HumidityHigh,HumidityAvg,HumidityLow,PressureMaxIn,PressureMinIn,WindSpeedMaxMPH,WindSpeedAvgMPH,GustSpeedMaxMPH,PrecipitationSumIn
2013-1-1,18,14,3,-100,-100,-100,0,0,100,0.00,40.00,0,-999,0,0.00
2013-1-2,15,9,3,-100,-100,-100,0,0,100,0.00,40.00,0,-999,0,0.01
2013-1-3,34,24,15,-100,-100,-100,0,0,100,0.00,40.00,0,-999,0,0.01
2013-1-4,28,24,19,-100,-100,-100,0,0,100,0.00,40.00,0,-999,0,0.00
2013-1-5,31,24,13,-100,-100,-100,0,0,100,0.00,40.00,0,-999,0,0.00
2013-1-6,29,25,21,-100,-100,-100,0,0,100,0.00,40.00,0,-999,0,0.01
2013-1-7,27,23,20,-100,-100,-100,0,0,100,0.00,40.00,0,-999,0,0.01
2013-1-8,31,26,22,-100,-100,-100,0,0,100,0.00,40.00,0,-999,0,0.00
2013-1-9,36,32,30,-100,-100,-100,0,0,100,0.00,40.00,0,-999,0,0.01
2013-1-10,32,19,4,-100,-100,-100,0,0,100,0.00,40.00,0,-999,0,0.00
2013-1-11,3,0,-7,-100,-100,-100,0,0,100,0.00,40.00,0,-999,0,0.00
2013-1-12,7,0,-10,-100,-100,-100,0,0,100,0.00,40.00,0,-999,0,0.01
2013-1-13,5,0,-5,-100,-100,-100,0,0,100,0.00,40.00,0,-999,0,0.01
2013-1-14,12,4,-3,-100,-100,-100,0,0,100,0.00,40.00,0,-999,0,0.02
2013-1-15,22,18,12,-100,-100,-100,0,0,100,0.00,40.00,0,-999,0,0.01
2013-1-16,30,24,21,-100,-100,-100,0,0,100,0.00,40.00,0,-999,0,0.00
2013-1-17,32,26,16,-100,-100,-100,0,0,100,0.00,40.00,0,-999,0,0.00
2013-1-18,37,30,27,-100,-100,-100,0,0,100,0.00,40.00,0,-999,0,0.01
2013-1-19,33,28,25,-100,-100,-100,0,0,100,0.00,40.00,0,-999,0,0.00
2013-1-20,33,29,24,-100,-100,-100,0,0,100,0.00,40.00,0,-999,0,0.00
2013-1-21,38,32,27,-100,-100,-100,0,0,100,0.00,40.00,0,-999,0,0.00
2013-1-22,42,33,27,-100,-100,-100,0,0,100,0.00,40.00,0,-999,0,0.00
2013-1-23,37,32,30,-100,-100,-100,0,0,100,0.00,40.00,0,-999,0,0.00
2013-1-27,20,17,14,-100,-100,-100,0,0,100,0.00,40.00,0,-999,0,0.00
2013-1-29,16,16,16,-100,-100,-100,0,0,100,0.00,40.00,0,-999,0,0.00
2013-1-30,23,20,17,-100,-100,-100,0,0,100,0.00,40.00,0,-999,0,0.01
2013-1-31,28,28,27,-100,-100,-100,0,0,100,0.00,40.00,0,-999,0,0.00
2013-2-2,30,23,19,-100,-100,-100,0,0,100,0.00,40.00,0,-999,0,0.00
2013-2-3,31,26,18,-100,-100,-100,0,0,100,0.00,40.00,0,-999,0,0.00
2013-2-4,29,26,24,-100,-100,-100,0,0,100,0.00,40.00,0,-999,0,0.00
2013-2-5,34,27,25,-100,-100,-100,0,0,100,0.00,40.00,0,-999,0,0.00
2013-2-6,25,25,25,-100,-100,-100,0,0,100,0.00,40.00,0,-999,0,0.00
2013-2-7,31,21,13,-100,-100,-100,0,0,100,0.00,40.00,0,-999,0,0.00
2013-2-8,21,19,14,-100,-100,-100,0,0,100,0.00,40.00,0,-999,0,0.00
2013-2-9,23,18,15,-100,-100,-100,0,0,100,0.00,40.00,0,-999,0,0.00
2013-2-10,19,14,8,-100,-100,-100,0,0,100,0.00,40.00,0,-999,0,0.01
2013-2-11,21,19,13,-100,-100,-100,0,0,100,0.00,40.00,0,-999,0,0.00
2013-2-12,25,22,18,-100,-100,-100,0,0,100,0.00,40.00,0,-999,0,0.00
2013-2-13,23,22,21,-100,-100,-100,0,0,100,0.00,40.00,0,-999,0,0.00
2013-2-14,21,20,19,-100,-100,-100,0,0,100,0.00,40.00,0,-999,0,0.00
2013-2-15,31,28,26,-100,-100,-100,0,0,100,0.00,40.00,0,-999,0,0.00
2013-2-16,36,27,20,-100,-100,-100,0,0,100,0.00,40.00,0,-999,0,0.00
2013-2-17,24,21,18,-100,-100,-100,0,0,100,0.00,40.00,0,-999,0,0.00
2013-2-18,27,23,16,-100,-100,-100,0,0,100,0.00,40.00,0,-999,0,0.00
2013-2-19,28,19,15,-100,-100,-100,0,0,100,0.00,40.00,0,-999,0,0.00
2013-2-20,25,20,16,-100,-100,-100,0,0,100,0.00,40.00,0,-999,0,0.00
2013-2-21,18,10,1,-100,-100,-100,0,0,100,0.00,40.00,0,-999,0,0.00
2013-2-22,26,23,16,-100,-100,-100,0,0,100,0.00,40.00,0,-999,0,0.00
2013-2-23,18,18,18,-100,-100,-100,0,0,100,0.00,40.00,0,-999,0,0.00
2013-2-24,22,22,22,-100,-100,-100,0,0,100,0.00,40.00,0,-999,0,0.00
2013-2-26,19,18,18,-100,-100,-100,0,0,100,0.00,40.00,0,-999,0,0.00
2013-2-27,29,22,7,-100,-100,-100,0,0,100,0.00,40.00,0,-999,0,0.00
2013-2-28,32,24,20,-100,-100,-100,0,0,100,0.00,40.00,0,-999,0,0.01
2013-3-1,37,32,29,-100,-100,-100,0,0,100,0.00,40.00,0,-999,0,0.01
2013-3-2,43,37,29,-100,-100,-100,0,0,100,0.00,40.00,0,-999,0,0.00
2013-3-3,33,22,15,-100,-100,-100,0,0,100,0.00,40.00,0,-999,0,0.01
2013-3-4,18,13,8,-100,-100,-100,0,0,100,0.00,40.00,0,-999,0,0.01
2013-3-5,36,20,6,-100,-100,-100,0,0,100,0.00,40.00,0,-999,0,0.00
2013-3-6,39,28,24,-100,-100,-100,0,0,100,0.00,40.00,0,-999,0,0.01
2013-3-7,31,25,19,-100,-100,-100,0,0,100,0.00,40.00,0,-999,0,0.00
2013-3-8,34,27,12,-100,-100,-100,0,0,100,0.00,40.00,0,-999,0,0.00
2013-3-9,31,23,11,-100,-100,-100,0,0,100,0.00,40.00,0,-999,0,0.00
2013-3-10,37,29,12,-100,-100,-100,0,0,100,0.00,40.00,0,-999,0,0.01
2013-3-11,31,26,21,-100,-100,-100,0,0,100,0.00,40.00,0,-999,0,0.01
2013-3-12,37,28,14,-100,-100,-100,0,0,100,0.00,40.00,0,-999,0,0.01
2013-3-13,44,37,31,-100,-100,-100,0,0,100,0.00,40.00,0,-999,0,0.01
2013-3-14,48,39,32,-100,-100,-100,0,0,100,0.00,40.00,0,-999,0,0.00
2013-3-15,41,36,31,-100,-100,-100,0,0,100,0.00,40.00,0,-999,0,0.00
2013-3-16,36,32,28,-100,-100,-100,0,0,100,0.00,40.00,0,-999,0,0.00
2013-3-17,27,18,13,-100,-100,-100,0,0,100,0.00,40.00,0,-999,0,0.01
2013-3-18,22,16,12,-100,-100,-100,0,0,100,0.00,40.00,0,-999,0,0.01
2013-3-19,30,20,11,-100,-100,-100,0,0,100,0.00,40.00,0,-999,0,0.02
2013-3-20,40,30,19,-100,-100,-100,0,0,100,0.00,40.00,0,-999,0,0.02
2013-3-21,23,18,12,-100,-100,-100,0,0,100,0.00,40.00,0,-999,0,0.01
2013-3-22,23,15,9,-100,-100,-100,0,0,100,0.00,40.00,0,-999,0,0.00
2013-3-23,21,12,6,-100,-100,-100,0,0,100,0.00,40.00,0,-999,0,0.01
2013-3-24,25,12,-1,-100,-100,-100,0,0,100,0.00,40.00,0,-999,0,0.00
2013-3-25,34,20,6,-100,-100,-100,0,0,100,0.00,40.00,0,-999,0,0.01
2013-3-26,39,29,22,-100,-100,-100,0,0,100,0.00,40.00,0,-999,0,0.01
2013-3-27,43,31,20,-100,-100,-100,0,0,100,0.00,40.00,0,-999,0,0.00
2013-3-28,44,34,27,-100,-100,-100,0,0,100,0.00,40.00,0,-999,0,0.01
2013-3-29,38,33,28,-100,-100,-100,0,0,100,0.00,40.00,0,-999,0,0.01
2013-3-30,44,34,28,-100,-100,-100,0,0,100,0.00,40.00,0,-999,0,0.01
2013-3-31,50,37,24,-100,-100,-100,0,0,100,0.00,40.00,0,-999,0,0.00
2013-4-1,52,38,27,-100,-100,-100,0,0,100,0.00,40.00,0,-999,0,0.00
2013-4-2,49,39,28,-100,-100,-100,0,0,100,0.00,40.00,0,-999,0,0.00
2013-4-3,45,38,31,-100,-100,-100,0,0,100,0.00,40.00,0,-999,0,0.00
2013-4-4,51,40,30,-100,-100,-100,0,0,100,0.00,40.00,0,-999,0,0.00
2013-4-5,42,36,32,-100,-100,-100,0,0,100,0.00,40.00,0,-999,0,0.01
2013-4-6,38,32,30,-100,-100,-100,0,0,100,0.00,40.00,0,-999,0,0.01
2013-4-7,36,30,26,-100,-100,-100,0,0,100,0.00,40.00,0,-999,0,0.02
2013-4-8,28,22,13,-100,-100,-100,0,0,100,0.00,40.00,0,-999,0,0.01
2013-4-9,36,20,2,-100,-100,-100,0,0,100,0.00,40.00,0,-999,0,0.00
2013-4-10,40,28,22,-100,-100,-100,0,0,100,0.00,40.00,0,-999,0,0.01
2013-4-11,35,30,24,-100,-100,-100,0,0,100,0.00,40.00,0,-999,0,0.01
2013-4-12,43,30,20,-100,-100,-100,0,0,100,0.00,40.00,0,-999,0,0.00
2013-4-13,32,25,18,-100,-100,-100,0,0,100,0.00,40.00,0,-999,0,0.01
2013-4-14,32,21,15,-100,-100,-100,0,0,100,0.00,40.00,0,-999,0,0.02
2013-4-15,25,14,4,-100,-100,-100,0,0,100,0.00,40.00,0,-999,0,0.00
2013-4-16,21,12,2,-100,-100,-100,0,0,100,0.00,40.00,0,-999,0,0.00
2013-4-17,31,18,4,-100,-100,-100,0,0,100,0.00,40.00,0,-999,0,0.01
2013-4-18,34,24,14,-100,-100,-100,0,0,100,0.00,40.00,0,-999,0,0.01
2013-4-19,38,31,25,-100,-100,-100,0,0,100,0.00,40.00,0,-999,0,0.01
2013-4-20,37,32,29,-100,-100,-100,0,0,100,0.00,40.00,0,-999,0,0.01
2013-4-21,36,28,16,-100,-100,-100,0,0,100,0.00,40.00,0,-999,0,0.01
2013-4-22,27,17,9,-100,-100,-100,0,0,100,0.00,40.00,0,-999,0,0.01
2013-4-23,32,20,7,-100,-100,-100,0,0,100,0.00,40.00,0,-999,0,0.01
2013-4-24,45,39,33,-100,-100,-100,0,0,100,0.00,40.00,0,-999,0,0.00
2013-4-25,50,38,31,-100,-100,-100,0,0,100,0.00,40.00,0,-999,0,0.00
2013-4-26,54,40,27,-100,-100,-100,0,0,100,0.00,40.00,0,-999,0,0.00
2013-4-27,54,44,37,-100,-100,-100,0,0,100,0.00,40.00,0,-999,0,0.01
2013-4-28,44,37,34,-100,-100,-100,0,0,100,0.00,40.00,0,-999,0,0.00
2013-4-29,34,31,22,-100,-100,-100,0,0,100,0.00,40.00,0,-999,0,0.01
2013-4-30,28,22,15,-100,-100,-100,0,0,100,0.00,40.00,0,-999,0,0.01
2013-5-1,37,25,12,-100,-100,-100,0,0,100,0.00,40.00,0,-999,0,0.01
2013-5-2,52,35,16,-100,-100,-100,0,0,100,0.00,40.00,0,-999,0,0.01
2013-5-3,40,36,33,-100,-100,-100,0,0,100,0.00,40.00,0,-999,0,0.01
2013-5-4,40,36,32,-100,-100,-100,0,0,100,0.00,40.00,0,-999,0,0.01
2013-5-5,56,41,30,-100,-100,-100,0,0,100,0.00,40.00,0,-999,0,0.01
2013-5-6,60,45,31,-100,-100,-100,0,0,100,0.00,40.00,0,-999,0,0.00
2013-5-7,59,46,36,-100,-100,-100,0,0,100,0.00,40.00,0,-999,0,0.01
2013-5-8,62,44,33,-100,-100,-100,0,0,100,0.00,40.00,0,-999,0,0.00
2013-5-9,60,45,36,-100,-100,-100,0,0,100,0.00,40.00,0,-999,0,0.01
2013-5-10,61,47,36,-100,-100,-100,0,0,100,0.00,40.00,0,-999,0,0.00
2013-5-11,63,48,36,-100,-100,-100,0,0,100,0.00,40.00,0,-999,0,0.00
2013-5-12,64,53,42,-100,-100,-100,0,0,100,0.00,40.00,0,-999,0,0.01
2013-5-13,64,51,40,-100,-100,-100,0,0,100,0.00,40.00,0,-999,0,0.00
2013-5-14,56,43,33,-100,-100,-100,0,0,100,0.00,40.00,0,-999,0,0.00
2013-5-15,53,41,31,-100,-100,-100,0,0,100,0.00,40.00,0,-999,0,0.00
2013-5-16,47,38,32,-100,-100,-100,0,0,100,0.00,40.00,0,-999,0,0.01
2013-5-17,42,37,33,-100,-100,-100,0,0,100,0.00,40.00,0,-999,0,0.01
2013-5-18,47,38,35,-100,-100,-100,0,0,100,0.00,40.00,0,-999,0,0.01
2013-5-19,38,36,34,-100,-100,-100,0,0,100,0.00,40.00,0,-999,0,0.01
2013-5-20,49,40,36,-100,-100,-100,0,0,100,0.00,40.00,0,-999,0,0.01
2013-5-21,59,43,33,-100,-100,-100,0,0,100,0.00,40.00,0,-999,0,0.00
2013-5-22,52,42,34,-100,-100,-100,0,0,100,0.00,40.00,0,-999,0,0.02
2013-5-23,41,34,29,-100,-100,-100,0,0,100,0.00,40.00,0,-999,0,0.05
2013-5-24,43,35,29,-100,-100,-100,0,0,100,0.00,40.00,0,-999,0,0.01
2013-5-25,48,39,31,-100,-100,-100,0,0,100,0.00,40.00,0,-999,0,0.01
2013-5-26,54,39,31,-100,-100,-100,0,0,100,0.00,40.00,0,-999,0,0.02
2013-5-27,49,39,34,-100,-100,-100,0,0,100,0.00,40.00,0,-999,0,0.02
2013-5-28,46,38,34,-100,-100,-100,0,0,100,0.00,40.00,0,-999,0,0.03
2013-5-29,50,40,35,-100,-100,-100,0,0,100,0.00,40.00,0,-999,0,0.02
2013-5-30,38,35,33,-100,-100,-100,0,0,100,0.00,40.00,0,-999,0,0.02
2013-5-31,42,35,31,-100,-100,-100,0,0,100,0.00,40.00,0,-999,0,0.00
2013-6-1,56,42,28,-100,-100,-100,0,0,100,0.00,40.00,0,-999,0,0.01
2013-6-2,45,38,35,-100,-100,-100,0,0,100,0.00,40.00,0,-999,0,0.01
2013-6-3,41,36,33,-100,-100,-100,0,0,100,0.00,40.00,0,-999,0,0.02
2013-6-4,50,39,34,-100,-100,-100,0,0,100,0.00,40.00,0,-999,0,0.02
2013-6-5,61,45,32,-100,-100,-100,0,0,100,0.00,40.00,0,-999,0,0.01
2013-6-6,66,51,39,-100,-100,-100,0,0,100,0.00,40.00,0,-999,0,0.01
2013-6-7,59,49,41,-100,-100,-100,0,0,100,0.00,40.00,0,-999,0,0.01
2013-6-8,60,51,41,-100,-100,-100,0,0,100,0.00,40.00,0,-999,0,0.00
2013-6-9,65,52,39,-100,-100,-100,0,0,100,0.00,40.00,0,-999,0,0.00
2013-6-10,67,52,36,-100,-100,-100,0,0,100,0.00,40.00,0,-999,0,0.01
2013-6-11,63,51,41,-100,-100,-100,0,0,100,0.00,40.00,0,-999,0,0.01
2013-6-12,65,51,39,-100,-100,-100,0,0,100,0.00,40.00,0,-999,0,0.02
2013-6-13,45,38,34,-100,-100,-100,0,0,100,0.00,40.00,0,-999,0,0.01
2013-6-14,43,37,33,-100,-100,-100,0,0,100,0.00,40.00,0,-999,0,0.02
2013-6-15,60,46,30,-100,-100,-100,0,0,100,0.00,40.00,0,-999,0,0.03
2013-6-16,66,52,36,-100,-100,-100,0,0,100,0.00,40.00,0,-999,0,0.01
2013-6-17,69,56,41,-100,-100,-100,0,0,100,0.00,40.00,0,-999,0,0.00
2013-6-18,74,57,43,-100,-100,-100,0,0,100,0.00,40.00,0,-999,0,0.01
2013-6-19,52,43,36,-100,-100,-100,0,0,100,0.00,40.00,0,-999,0,0.01
2013-6-20,38,35,33,-100,-100,-100,0,0,100,0.00,40.00,0,-999,0,0.01
2013-6-24,60,50,44,-100,-100,-100,0,0,100,0.00,40.00,0,-999,0,0.00
2013-6-25,54,45,41,-100,-100,-100,0,0,100,0.00,40.00,0,-999,0,0.00
2013-6-26,52,47,44,-100,-100,-100,0,0,100,0.00,40.00,0,-999,0,0.01
2013-6-27,69,55,44,-100,-100,-100,0,0,100,0.00,40.00,0,-999,0,0.01
2013-6-28,74,62,46,-100,-100,-100,0,0,100,0.00,40.00,0,-999,0,0.00
2013-6-29,72,59,50,-100,-100,-100,0,0,100,0.00,40.00,0,-999,0,0.01
2013-6-30,74,63,49,-100,-100,-100,0,0,100,0.00,40.00,0,-999,0,0.01
2013-7-1,81,65,51,-100,-100,-100,0,0,100,0.00,40.00,0,-999,0,0.00
2013-7-2,81,66,54,-100,-100,-100,0,0,100,0.00,40.00,0,-999,0,0.00
2013-7-3,74,64,55,-100,-100,-100,0,0,100,0.00,40.00,0,-999,0,0.00
2013-7-4,70,60,49,-100,-100,-100,0,0,100,0.00,40.00,0,-999,0,0.00
2013-7-5,67,55,44,-100,-100,-100,0,0,100,0.00,40.00,0,-999,0,0.00
2013-7-6,69,53,39,-100,-100,-100,0,0,100,0.00,40.00,0,-999,0,0.00
2013-7-7,73,59,45,-100,-100,-100,0,0,100,0.00,40.00,0,-999,0,0.00
2013-7-8,64,54,47,-100,-100,-100,0,0,100,0.00,40.00,0,-999,0,0.01
2013-7-9,71,55,39,-100,-100,-100,0,0,100,0.00,40.00,0,-999,0,0.00
2013-7-10,76,61,46,-100,-100,-100,0,0,100,0.00,40.00,0,-999,0,0.00
2013-7-11,64,55,45,-100,-100,-100,0,0,100,0.00,40.00,0,-999,0,0.01
2013-7-12,64,51,41,-100,-100,-100,0,0,100,0.00,40.00,0,-999,0,0.00
2013-7-13,65,55,43,-100,-100,-100,0,0,100,0.00,40.00,0,-999,0,0.00
2013-7-14,69,54,42,-100,-100,-100,0,0,100,0.00,40.00,0,-999,0,0.00
2013-7-15,75,58,46,-100,-100,-100,0,0,100,0.00,40.00,0,-999,0,0.00
2013-7-16,76,57,46,-100,-100,-100,0,0,100,0.00,40.00,0,-999,0,0.00
2013-7-17,74,59,49,-100,-100,-100,0,0,100,0.00,40.00,0,-999,0,0.01
2013-7-18,72,59,44,-100,-100,-100,0,0,100,0.00,40.00,0,-999,0,0.00
2013-7-19,72,57,45,-100,-100,-100,0,0,100,0.00,40.00,0,-999,0,0.00
2013-7-20,73,58,45,-100,-100,-100,0,0,100,0.00,40.00,0,-999,0,0.00
2013-7-21,74,60,44,-100,-100,-100,0,0,100,0.00,40.00,0,-999,0,0.00
2013-7-22,73,58,46,-100,-100,-100,0,0,100,0.00,40.00,0,-999,0,0.00
2013-7-23,74,59,45,-100,-100,-100,0,0,100,0.00,40.00,0,-999,0,0.00
2013-7-24,78,64,49,-100,-100,-100,0,0,100,0.00,40.00,0,-999,0,0.00
2013-7-25,75,62,48,-100,-100,-100,0,0,100,0.00,40.00,0,-999,0,0.00
2013-7-26,78,60,49,-100,-100,-100,0,0,100,0.00,40.00,0,-999,0,0.00
2013-7-27,72,60,50,-100,-100,-100,0,0,100,0.00,40.00,0,-999,0,0.00
2013-7-28,67,56,44,-100,-100,-100,0,0,100,0.00,40.00,0,-999,0,0.00
2013-7-29,66,53,41,-100,-100,-100,0,0,100,0.00,40.00,0,-999,0,0.00
2013-7-30,65,54,43,-100,-100,-100,0,0,100,0.00,40.00,0,-999,0,0.00
2013-7-31,75,58,43,-100,-100,-100,0,0,100,0.00,40.00,0,-999,0,0.00
2013-8-1,63,50,43,-100,-100,-100,0,0,100,0.00,40.00,0,-999,0,0.04
2013-8-2,53,46,38,-100,-100,-100,0,0,100,0.00,40.00,0,-999,0,0.01
2013-8-3,63,50,40,-100,-100,-100,0,0,100,0.00,40.00,0,-999,0,0.00
2013-8-4,67,55,41,-100,-100,-100,0,0,100,0.00,40.00,0,-999,0,0.00
2013-8-5,65,54,43,-100,-100,-100,0,0,100,0.00,40.00,0,-999,0,0.00
2013-8-6,66,54,43,-100,-100,-100,0,0,100,0.00,40.00,0,-999,0,0.00
2013-8-7,70,55,43,-100,-100,-100,0,0,100,0.00,40.00,0,-999,0,0.00
2013-8-8,70,57,45,-100,-100,-100,0,0,100,0.00,40.00,0,-999,0,0.00
2013-8-9,65,54,47,-100,-100,-100,0,0,100,0.00,40.00,0,-999,0,0.00
2013-8-10,71,55,45,-100,-100,-100,0,0,100,0.00,40.00,0,-999,0,0.01
2013-8-11,72,56,44,-100,-100,-100,0,0,100,0.00,40.00,0,-999,0,0.04
2013-8-25,70,57,45,-100,-100,-100,0,0,100,0.00,40.00,0,-999,0,0.00
2013-8-26,66,55,45,-100,-100,-100,0,0,100,0.00,40.00,0,-999,0,0.00
2013-8-27,67,54,45,-100,-100,-100,0,0,100,0.00,40.00,0,-999,0,0.00
2013-8-28,59,57,55,-100,-100,-100,0,0,100,0.00,40.00,0,-999,0,0.00
2013-8-29,73,56,48,-100,-100,-100,0,0,100,0.00,40.00,0,-999,0,0.00
2013-8-30,67,60,48,-100,-100,-100,0,0,100,0.00,40.00,0,-999,0,0.00
2013-8-31,68,53,42,-100,-100,-100,0,0,100,0.00,40.00,0,-999,0,0.00
2013-9-1,75,60,47,-100,-100,-100,0,0,100,0.00,40.00,0,-999,0,0.00
2013-9-2,73,62,53,-100,-100,-100,0,0,100,0.00,40.00,0,-999,0,0.00
2013-9-3,66,56,50,-100,-100,-100,0,0,100,0.00,40.00,0,-999,0,0.00
2013-9-4,67,57,48,-100,-100,-100,0,0,100,0.00,40.00,0,-999,0,0.00
2013-9-5,63,56,50,-100,-100,-100,0,0,100,0.00,40.00,0,-999,0,0.01
2013-9-6,66,56,47,-100,-100,-100,0,0,100,0.00,40.00,0,-999,0,0.02
2013-9-17,49,43,39,-100,-100,-100,0,0,100,0.00,40.00,0,-999,0,0.00
2013-9-18,41,38,34,-100,-100,-100,0,0,100,0.00,40.00,0,-999,0,0.00
2013-9-19,50,39,32,-100,-100,-100,0,0,100,0.00,40.00,0,-999,0,0.01
2013-9-20,62,47,35,-100,-100,-100,0,0,100,0.00,40.00,0,-999,0,0.00
2013-9-21,60,49,41,-100,-100,-100,0,0,100,0.00,40.00,0,-999,0,0.00
2013-9-22,46,40,35,-100,-100,-100,0,0,100,0.00,40.00,0,-999,0,0.01
2013-9-23,41,36,34,-100,-100,-100,0,0,100,0.00,40.00,0,-999,0,0.01
2013-9-24,39,36,34,-100,-100,-100,0,0,100,0.00,40.00,0,-999,0,0.02
2013-9-25,35,34,32,-100,-100,-100,0,0,100,0.00,40.00,0,-999,0,0.01
2013-9-26,33,30,23,-100,-100,-100,0,0,100,0.00,40.00,0,-999,0,0.02
2013-9-27,34,28,21,-100,-100,-100,0,0,100,0.00,40.00,0,-999,0,0.01
2013-10-2,40,32,27,-100,-100,-100,0,0,100,0.00,40.00,0,-999,0,0.01
2013-10-3,28,27,25,-100,-100,-100,0,0,100,0.00,40.00,0,-999,0,0.02
2013-10-4,33,28,23,-100,-100,-100,0,0,100,0.00,40.00,0,-999,0,0.01
2013-10-5,42,34,20,-100,-100,-100,0,0,100,0.00,40.00,0,-999,0,0.01
2013-10-6,50,38,29,-100,-100,-100,0,0,100,0.00,40.00,0,-999,0,0.00
2013-10-7,53,46,38,-100,-100,-100,0,0,100,0.00,40.00,0,-999,0,0.01
2013-10-8,35,31,26,-100,-100,-100,0,0,100,0.00,40.00,0,-999,0,0.00
2013-10-9,43,33,25,-100,-100,-100,0,0,100,0.00,40.00,0,-999,0,0.01
2013-10-10,41,32,29,-100,-100,-100,0,0,100,0.00,40.00,0,-999,0,0.00
2013-10-11,36,31,28,-100,-100,-100,0,0,100,0.00,40.00,0,-999,0,0.00
2013-10-12,38,28,23,-100,-100,-100,0,0,100,0.00,40.00,0,-999,0,0.01
2013-10-13,38,34,24,-100,-100,-100,0,0,100,0.00,40.00,0,-999,0,0.00
2013-11-13,32,32,32,-100,-100,-100,0,0,100,0.00,40.00,0,-999,0,0.00
2013-11-14,27,26,26,-100,-100,-100,0,0,100,0.00,40.00,0,-999,0,0.00
2013-11-15,25,25,25,-100,-100,-100,0,0,100,0.00,40.00,0,-999,0,0.00
2013-11-16,22,22,22,-100,-100,-100,0,0,100,0.00,40.00,0,-999,0,0.00
2013-11-17,23,23,23,-100,-100,-100,0,0,100,0.00,40.00,0,-999,0,0.00
2013-11-18,25,24,22,-100,-100,-100,0,0,100,0.00,40.00,0,-999,0,0.00
2013-11-19,35,32,31,-100,-100,-100,0,0,100,0.00,40.00,0,-999,0,0.01
2013-11-24,35,31,23,-100,-100,-100,0,0,100,0.00,40.00,0,-999,0,0.00
2013-11-25,29,29,29,-100,-100,-100,0,0,100,0.00,40.00,0,-999,0,0.00
2013-11-26,34,29,25,-100,-100,-100,0,0,100,0.00,40.00,0,-999,0,0.00
2013-11-27,38,32,26,-100,-100,-100,0,0,100,0.00,40.00,0,-999,0,0.00
2013-11-28,40,28,25,-100,-100,-100,0,0,100,0.00,40.00,0,-999,0,0.00
2013-11-29,31,26,24,-100,-100,-100,0,0,100,0.00,40.00,0,-999,0,0.00
2013-11-30,31,30,29,-100,-100,-100,0,0,100,0.00,40.00,0,-999,0,0.00
2013-12-1,30,30,29,-100,-100,-100,0,0,100,0.00,40.00,0,-999,0,0.00
2013-12-2,28,19,12,-100,-100,-100,0,0,100,0.00,40.00,0,-999,0,0.03
2013-12-3,-2,-6,-13,-100,-100,-100,0,0,100,0.00,40.00,0,-999,0,0.00
2013-12-4,-2,-7,-13,-100,-100,-100,0,0,100,0.00,40.00,0,-999,0,0.00
2013-12-11,19,16,14,-100,-100,-100,0,0,100,0.00,40.00,0,-999,0,0.00
2013-12-12,23,22,20,-100,-100,-100,0,0,100,0.00,40.00,0,-999,0,0.00
2013-12-13,25,24,23,-100,-100,-100,0,0,100,0.00,40.00,0,-999,0,0.01
2013-12-14,27,25,23,-100,-100,-100,0,0,100,0.00,40.00,0,-999,0,0.00
2013-12-15,33,30,26,-100,-100,-100,0,0,100,0.00,40.00,0,-999,0,0.00
2013-12-16,32,28,24,-100,-100,-100,0,0,100,0.00,40.00,0,-999,0,0.00
2013-12-17,30,27,24,-100,-100,-100,0,0,100,0.00,40.00,0,-999,0,0.00
2013-12-18,31,30,29,-100,-100,-100,0,0,100,0.00,40.00,0,-999,0,0.00
2013-12-19,18,16,13,-100,-100,-100,0,0,100,0.00,40.00,0,-999,0,0.00
2013-12-20,10,10,10,-100,-100,-100,0,0,100,0.00,40.00,0,-999,0,0.00
2013-12-25,24,16,9,-100,-100,-100,0,0,100,0.00,40.00,0,-999,0,0.00
2013-12-26,36,31,28,-100,-100,-100,0,0,100,0.00,40.00,0,-999,0,0.01
2013-12-27,30,30,30,-100,-100,-100,0,0,100,0.00,40.00,0,-999,0,0.00
2013-12-28,21,21,21,-100,-100,-100,0,0,100,0.00,40.00,0,-999,0,0.00
2013-12-29,13,13,13,-100,-100,-100,0,0,100,0.00,40.00,0,-999,0,0.00
2013-12-31,29,27,25,-100,-100,-100,0,0,100,0.00,40.00,0,-999,0,0.01
2014-1-1,24,22,21,-100,-100,-100,0,0,100,0.00,40.00,0,-999,0,0.00
2014-1-2,32,24,18,-100,-100,-100,0,0,100,0.00,40.00,0,-999,0,0.00